パンスターズ彗星

C/2024 U1 ( PanSTARRS )

English version
Home page
Updated on November 26, 2024

---------------------------------------------------------------------

・ プロフィール

発見日 2024年10月30日
発見光度 20.8等
発見者 Pan-STARRS 1 telescope (Haleakala)

・ 写真集

・ 軌道要素

Epoch 2024 Oct. 17.0 TT = JDT 2460600.5
T 2024 June 30.63536 TT                                 Rudenko
q   4.8359692            (2000.0)            P               Q
z  +0.0013613      Peri.  188.07566     +0.08359928     +0.62007185
 +/-0.0000159      Node   270.24854     +0.95231621     +0.18080130
e   0.9934166      Incl.  128.73159     +0.29343654     -0.76342766
From 74 observations 2023 Nov. 13-2024 Nov. 9, mean residual 0".4.

・ 光度変化

        m1 = 6.5 + 5 logΔ + 15.0 log r(t - 200)

---------------------------------------------------------------------

軌道要素はM.P.E.C. 2024-V192に掲載されたものです。
光度グラフはComet for Windowsで作成したものです。

---------------------------------------------------------------------

Copyright(C) Seiichi Yoshida (comet@aerith.net). All rights reserved.